Location: ?sanag?dem
(16.9522°N, 81.1036°E)
Time: 00:05:20
(UTC+00:00)

Envisat - Pass Details

Date: 18 August 2024
Orbit: 762 x 764 km, 98.3° (Epoch: 16 September)

Event Time Altitude Azimuth Distance (km) Brightness Sun altitude
Rises 21:55:30 0° 2° (N) 3,217 6.6 -33.2°
Reaches altitude 10° 21:57:53 10° 356° (N) 2,291 5.7 -32.7°
Enters shadow 21:58:55 16° 351° (N) 1,904 5.2 -32.5°
